This is the latest recevied weather packets stored in our database for station/object KB1FPD. If no packets are shown the sender has not sent any weather packets the latest 10 day(s).
| Time | Temp. | Humidity | Pressure | Rain* | Wind** | Luminosity | Snow |
|---|---|---|---|---|---|---|---|
| 1777746610 | 11.11° C | 55% | 1013.6 hPa | 0 mm | - | - | - |
| 1777746316 | 11.11° C | 52% | 1013.5 hPa | 0 mm | - | - | - |
| 1777746008 | 11.67° C | 56% | 1013.4 hPa | 0 mm | - | - | - |
| 1777745709 | 11.67° C | 54% | 1013.6 hPa | 0 mm | - | - | - |
| 1777745410 | 11.11° C | 57% | 1013.6 hPa | 0 mm | - | - | - |
| 1777745106 | 11.11° C | 53% | 1013.8 hPa | 0 mm | - | - | - |
| 1777744808 | 11.11° C | 51% | 1013.8 hPa | 0 mm | - | - | - |
| 1777744517 | 11.67° C | 50% | 1013.8 hPa | 0 mm | - | - | - |
| 1777744208 | 11.67° C | 55% | 1013.7 hPa | 0 mm | - | - | - |
| 1777743904 | 11.67° C | 52% | 1013.7 hPa | 0 mm | - | - | - |
| 1777743609 | 11.67° C | 55% | 1013.7 hPa | 0 mm | - | - | - |
| 1777743298 | 11.67° C | 54% | 1013.7 hPa | 0 mm | - | - | - |
| 1777743009 | 11.11° C | 56% | 1013.8 hPa | 0 mm | - | - | - |
| 1777742704 | 10.56° C | 53% | 1013.7 hPa | 0 mm | - | - | - |
| 1777742409 | 10.56° C | 58% | 1013.8 hPa | 0 mm | - | - | - |
| 1777742102 | 10.56° C | 57% | 1013.8 hPa | 0 mm | - | - | - |
| 1777741800 | 10.56° C | 55% | 1013.9 hPa | 0 mm | - | - | - |
| 1777741504 | 10.56° C | 53% | 1013.9 hPa | 0 mm | - | - | - |
| 1777741201 | 10.56° C | 56% | 1013.8 hPa | 0 mm | - | - | - |
| 1777740909 | 10.56° C | 54% | 1013.9 hPa | 0 mm | - | - | - |
| 1777740602 | 10.56° C | 52% | 1013.9 hPa | 0 mm | - | - | - |
| 1777740293 | 10.56° C | 56% | 1014 hPa | 0 mm | - | - | - |
| 1777739991 | 10.56° C | 56% | 1014 hPa | 0 mm | - | - | - |
| 1777739688 | 10.56° C | 54% | 1014.2 hPa | 0 mm | - | - | - |
| 1777739386 | 10.56° C | 54% | 1014 hPa | 0 mm | - | - | - |
* Rain latest hour (hover to see other rain measurements)
** Current wind speed in m/s (hover to see current wind gust speed)